GFSSGP_con_mlcape_000.txt.gz
CAPE
0 0 0 0 0 0 0 0 0 0 0 0 0 0 0 0 0 0 0 0 0 0 0 130 81 38 0 0 0 0 0 0 0 0 0 0 0 0 0 4 0 4 14 17 12 27 51 62 88
0 0 0 0 0 0 0 0 0 0 0 0 0 0 0 0 0 0 0 0 0 0 7 100 85 5 0 0 0 0 0 0 0 0 0 0 0 1 3 0 28 27 25 31 13 31 57 100 67
0 0 0 1 0 0 0 0 0 0 0 0 0 0 0 0 0 0 0 0 0 0 5 16 71 0 1 0 0 0 0 0 0 0 0 0 0 0 1 5 3 30 58 58 62 75 76 81 125
0 0 0 0 0 0 0 0 0 0 0 0 0 0 0 0 0 0 0 0 0 0 0 0 53 24 51 0 0 0 0 0 0 0 0 0 0 0 0 1 6 6 33 80 114 188 190 115 183
0 0 0 0 0 0 0 0 0 0 0 0 0 0 0 0 0 0 0 0 0 0 0 0 0 61 64 37 29 7 0 0 0 11 10 19 10 5 1 2 15 8 110 137 162 245 271 186 260
0 0 0 0 0 0 0 0 0 0 0 0 0 0 0 0 0 0 0 0 0 0 0 0 1 42 0 0 8 3 0 47 54 52 64 58 40 38 4 6 40 9 167 266 222 309 356 332 304
0 0 0 0 0 0 0 0 0 0 0 0 0 0 0 0 0 0 0 0 0 0 0 0 0 0 0 0 15 37 44 27 70 71 82 48 54 53 2 46 53 68 188 405 355 447 445 386 316
0 0 0 0 0 0 0 0 0 0 0 0 0 0 0 0 0 0 0 0 0 0 0 0 0 0 0 0 0 0 2 20 34 35 30 36 31 41 32 58 104 206 380 504 501 561 543 476 395
0 0 0 0 0 0 0 0 0 0 0 0 0 0 0 0 0 0 0 0 0 0 0 0 0 0 0 0 0 0 0 1 1 0 4 37 6 3 18 63 160 384 450 624 716 603 556 557 448
0 0 0 0 0 0 0 0 0 0 0 0 0 0 0 0 0 0 0 0 0 0 0 0 0 0 0 0 0 0 0 0 0 0 0 0 0 0 7 67 152 298 469 608 721 698 751 734 476
0 0 0 0 0 0 0 0 0 0 0 0 0 0 0 0 0 0 0 0 0 0 0 0 0 0 0 0 0 0 0 0 2 1 2 0 0 0 2 28 76 226 444 609 638 640 645 670 396
0 0 0 0 0 0 0 0 0 0 0 0 0 0 0 0 0 0 0 0 0 0 0 0 0 0 0 0 0 0 1 4 1 0 0 0 0 0 1 5 15 215 410 319 399 497 685 554 451
0 0 0 0 0 0 0 0 0 0 0 0 0 0 0 0 0 0 0 0 0 0 0 0 0 0 0 0 0 0 1 0 0 0 0 0 0 0 0 20 67 183 263 357 360 653 606 478 379
0 0 0 0 0 0 0 0 0 0 0 0 0 0 0 0 0 0 0 0 0 0 0 0 0 0 0 0 0 0 0 0 0 0 0 0 0 0 5 37 77 168 204 396 550 696 559 452 339
0 0 0 0 0 0 0 0 0 0 0 0 0 0 0 0 0 0 0 0 0 0 0 0 0 0 0 0 0 0 0 0 6 6 0 0 14 45 97 84 128 120 165 431 458 466 299 260 170
0 0 0 0 0 0 0 0 0 0 0 0 0 0 0 0 0 0 0 0 0 0 0 0 0 0 0 0 0 6 16 0 3 3 19 94 145 139 106 101 136 205 204 414 366 273 202 194 107
0 0 0 0 0 0 0 0 0 0 0 0 0 0 0 0 0 0 0 0 0 0 0 0 0 2 0 0 0 2 26 54 83 51 53 147 173 222 139 132 196 59 243 336 319 282 181 106 20
0 0 0 0 0 0 0 0 0 0 0 0 0 0 0 0 0 0 0 0 0 0 0 0 0 0 0 0 0 9 19 54 72 100 72 112 106 53 19 30 110 145 174 163 136 147 111 152 8
0 0 0 0 0 0 0 0 0 0 0 0 0 0 0 0 0 0 0 0 0 0 0 0 0 0 0 0 0 0 0 12 48 74 72 46 40 51 52 29 72 32 72 61 98 49 76 33 8
0 0 0 0 0 0 0 0 0 0 0 0 0 0 0 0 0 0 0 0 0 0 0 0 0 0 0 0 0 0 0 0 23 29 32 27 29 103 141 103 102 72 64 25 25 17 12 13 13
0 0 0 0 0 0 0 0 0 0 0 0 0 0 0 0 0 0 0 0 0 0 0 0 0 0 0 0 0 0 0 19 43 38 62 89 1 37 83 66 60 67 75 79 48 43 3 1 2
0 0 0 0 0 0 0 0 0 0 0 0 0 0 0 0 0 0 0 0 0 0 0 0 0 0 0 0 0 0 0 0 19 22 45 96 80 60 110 86 46 18 33 91 91 58 46 11 4
0 0 0 0 0 0 0 0 0 0 0 0 0 0 0 0 0 0 0 0 0 0 0 0 0 0 0 0 0 0 0 0 5 45 83 64 53 14 76 96 60 98 87 90 81 66 51 36 15
0 0 0 0 0 0 0 0 0 0 0 0 0 0 0 0 0 0 0 0 0 0 0 0 0 0 0 0 0 0 0 0 0 0 0 0 21 43 90 66 15 16 93 153 77 67 94 56 32
0 0 0 0 0 0 0 0 0 0 0 0 0 0 0 0 0 0 0 0 0 0 0 0 0 0 0 0 0 0 0 0 0 0 0 0 0 48 71 83 77 81 92 111 76 97 72 42 35
0 0 0 0 0 0 0 0 0 0 0 0 0 0 0 0 0 0 0 0 0 0 0 0 0 0 0 0 0 0 0 0 0 0 0 0 0 0 0 12 0 8 45 48 9 16 24 1 18
0 0 0 0 0 0 0 0 4 0 0 0 0 0 0 0 0 0 0 0 0 0 0 0 0 0 0 0 0 0 0 0 0 0 0 0 0 0 0 0 0 0 0 0 0 0 0 0 0
0 0 0 0 0 0 0 11 33 2 1 0 0 0 0 0 0 0 0 0 0 0 0 0 0 0 0 0 0 0 0 0 0 0 0 0 0 0 0 0 0 0 0 0 0 0 0 0 0
13 15 19 0 0 0 0 0 224 42 4 0 0 0 0 0 0 0 0 0 0 0 0 0 0 0 0 0 0 0 0 0 0 0 0 0 0 0 0 0 0 0 0 0 0 0 0 0 0
113 69 13 8 0 8 23 28 339 165 7 0 0 0 0 0 0 0 0 0 0 0 0 0 0 0 0 0 0 0 0 0 0 0 0 0 0 0 0 0 0 0 0 0 0 0 0 0 0

GFSSGP_con_mlcape_006.txt.gz
CAPE
0 0 0 0 0 0 0 0 0 0 0 0 0 0 0 0 0 0 0 0 0 0 0 0 211 175 176 132 28 0 0 0 0 0 0 0 0 0 0 3 12 27 24 6 6 7 3 33 76
0 0 0 0 0 0 0 0 0 0 0 0 0 0 0 0 0 0 0 0 0 0 0 0 288 199 134 200 101 21 0 0 0 0 0 0 0 0 0 0 1 11 26 16 7 7 3 25 87
0 0 0 0 0 0 0 0 0 0 0 0 0 0 0 0 0 0 0 0 0 0 0 0 9 220 257 323 261 98 22 23 16 1 0 0 0 1 0 0 1 5 12 16 14 11 9 1 66
0 0 0 0 0 0 0 0 0 0 0 0 0 0 0 0 0 0 0 0 0 0 0 0 125 495 475 378 307 208 99 57 47 44 6 8 10 11 5 0 0 0 7 13 20 19 11 4 51
0 0 0 0 0 0 0 0 0 0 0 0 0 0 0 0 0 0 0 0 0 0 0 0 34 534 626 469 325 236 64 45 30 10 16 28 31 22 8 2 0 0 0 9 9 41 8 70 171
0 0 0 0 0 0 0 0 0 0 0 0 0 0 0 0 0 0 0 0 0 0 0 0 0 180 531 341 60 35 19 16 12 7 20 50 48 36 31 50 5 2 1 3 10 29 62 204 331
0 0 0 0 0 0 0 0 0 0 0 0 0 0 0 0 0 0 0 0 0 0 0 0 0 0 0 0 0 2 8 25 35 41 34 44 70 63 74 71 48 17 3 2 13 15 96 200 359
0 0 0 0 0 0 0 0 0 0 0 0 0 0 0 0 0 0 0 0 0 0 0 0 0 0 0 0 0 0 0 0 2 34 25 60 57 64 65 79 56 23 14 20 12 61 211 166 305
0 0 0 0 0 0 0 0 0 0 0 0 0 0 0 0 0 0 0 0 0 0 0 0 0 0 0 0 0 0 0 1 3 4 15 20 4 8 28 66 50 39 36 80 83 161 305 214 334
0 0 0 0 0 0 0 0 0 0 0 0 0 0 0 0 0 0 0 0 0 0 0 0 0 0 0 0 0 0 0 0 0 0 1 0 1 0 16 30 56 39 50 126 131 307 461 354 296
0 0 0 0 0 0 0 0 0 0 0 0 0 0 0 0 0 0 0 0 0 0 0 0 0 0 0 0 0 0 0 0 0 1 0 6 10 0 15 11 13 14 79 104 277 417 407 317 312
0 0 0 0 0 0 0 0 0 0 0 0 0 0 0 0 0 0 0 0 0 0 0 0 0 0 0 0 0 0 0 1 1 0 0 2 2 1 0 1 17 31 25 44 109 74 267 358 334
0 0 0 0 0 0 0 0 0 0 0 0 0 0 0 0 0 0 0 0 0 0 0 0 0 0 0 0 0 0 0 0 1 0 0 0 0 0 0 0 6 9 39 60 50 95 154 214 340
0 0 0 0 0 0 0 0 0 0 0 0 0 0 0 0 0 0 0 0 0 0 0 0 0 0 0 0 0 0 0 0 0 0 0 0 0 0 0 9 20 34 71 74 58 124 185 324 359
0 0 0 0 0 0 0 0 0 0 0 0 0 0 0 0 0 0 0 0 0 0 0 0 0 0 0 0 0 0 0 0 0 0 0 0 0 0 0 13 8 27 61 77 110 110 220 245 302
0 0 0 0 0 0 0 0 0 0 0 0 0 0 0 0 0 0 0 0 0 0 0 0 0 0 0 0 0 0 0 0 0 0 0 0 4 25 13 19 16 38 65 156 252 241 212 250 420
0 0 0 0 0 0 0 0 0 0 0 0 0 0 0 0 0 0 0 0 0 0 0 0 0 0 0 0 0 0 0 0 18 22 26 60 136 94 45 95 75 111 182 294 236 306 220 312 512
0 0 0 0 0 0 0 0 0 0 0 0 0 0 0 0 0 0 0 0 0 0 0 0 0 0 0 0 0 0 0 3 5 8 34 49 64 97 116 133 206 249 233 223 203 246 357 448 504
0 0 0 0 0 0 0 0 0 0 0 0 0 0 0 0 0 0 0 0 0 0 0 0 0 0 0 0 0 0 0 0 0 5 23 18 26 45 109 57 34 228 196 262 290 317 350 393 369
0 0 0 0 0 0 0 0 0 0 0 0 0 0 0 0 0 0 0 0 0 0 0 0 0 0 0 0 0 0 5 0 1 8 36 28 18 59 123 130 131 198 217 286 266 311 225 237 210
0 0 0 0 0 0 0 0 0 0 0 0 0 0 0 0 0 0 0 0 0 0 0 0 0 0 0 0 0 0 4 9 0 0 11 67 39 38 85 114 173 213 245 261 180 270 311 185 78
0 0 0 0 0 0 0 0 0 0 0 0 0 0 0 0 0 0 0 0 0 0 0 0 0 0 0 0 0 2 7 5 0 3 22 21 47 76 68 76 93 85 74 168 120 91 105 53 3
0 0 0 0 0 0 0 0 0 0 0 0 0 0 0 0 0 0 0 0 0 0 0 0 0 0 0 0 0 0 1 7 6 2 2 20 30 63 79 57 31 58 58 55 109 5 43 41 1
0 0 0 0 0 0 0 0 0 0 0 0 0 0 0 0 0 0 0 0 0 0 0 0 0 0 0 0 0 0 0 0 1 35 11 2 5 19 70 58 31 80 69 61 47 14 1 9 0
0 0 0 0 0 0 0 0 0 0 0 0 0 0 0 0 0 0 0 0 0 0 0 0 0 0 0 0 0 0 0 0 0 0 2 11 39 41 65 41 66 40 56 57 29 14 1 4 3
0 0 0 0 0 0 0 0 0 0 0 0 0 0 0 0 0 0 0 0 0 0 0 0 0 0 0 0 0 0 0 0 0 0 15 7 24 36 38 30 17 22 71 56 35 47 22 1 0
0 0 0 0 0 0 0 0 0 0 0 0 0 0 0 0 0 0 0 0 0 0 0 0 0 0 0 0 0 0 0 0 0 0 0 1 0 14 12 16 25 19 65 56 32 39 19 23 0
0 0 0 0 0 0 0 0 0 0 0 0 0 0 0 0 0 0 0 0 0 0 0 0 0 0 0 0 0 0 0 0 0 0 0 0 0 0 0 0 0 0 3 28 38 16 15 2 0
0 0 0 0 0 0 0 0 0 0 24 1 0 0 0 0 0 0 0 0 0 0 0 0 0 0 0 0 0 0 0 0 0 0 0 0 0 0 0 0 0 0 0 0 0 0 1 0 0
0 0 0 0 0 0 0 0 0 34 26 80 7 0 0 0 0 0 0 0 0 0 0 0 0 0 0 0 0 0 0 0 0 0 0 0 0 0 0 0 0 0 0 0 0 0 0 0 0

GFSSGP_con_mlcape_009.txt.gz
CAPE
0 0 0 0 0 0 0 0 0 0 0 0 0 0 0 0 0 0 0 0 0 0 0 0 368 410 220 104 142 162 1 0 0 0 0 0 0 0 0 0 5 25 20 28 15 10 11 3 105
0 0 0 0 0 0 0 0 0 0 0 0 0 0 0 0 0 0 0 0 0 0 0 0 124 473 63 124 292 257 130 24 0 0 0 0 0 0 0 0 1 6 12 33 23 18 13 6 40
0 0 0 0 0 0 0 0 0 0 0 0 0 0 0 0 0 0 0 0 0 0 0 0 0 8 118 350 364 190 38 92 44 37 1 3 2 7 0 1 1 7 15 0 25 19 14 8 0
0 0 0 0 0 0 0 0 0 0 0 0 0 0 0 0 0 0 0 0 0 0 0 0 0 355 825 642 445 371 272 84 81 71 59 48 21 16 15 9 2 0 7 24 2 57 15 9 7
0 0 0 0 0 0 0 0 0 0 0 0 0 0 0 0 0 0 0 0 0 0 0 0 0 113 466 530 464 261 43 25 24 24 38 28 38 50 18 18 13 2 2 6 8 7 91 25 47
0 0 0 0 0 0 0 0 0 0 0 0 0 0 0 0 0 0 0 0 0 0 0 0 0 55 253 465 128 53 31 38 56 56 31 21 26 63 48 37 14 5 0 2 4 0 10 56 74
0 0 0 0 0 0 0 0 0 0 0 0 0 0 0 0 0 0 0 0 0 0 0 0 0 0 0 0 0 0 0 2 21 32 42 44 53 49 47 25 30 77 7 1 1 48 1 113 172
0 0 0 0 0 0 0 0 0 0 0 0 0 0 0 0 0 0 0 0 0 0 0 0 0 0 0 0 0 0 0 0 1 3 26 61 74 74 86 60 46 71 35 2 0 83 45 86 86
0 0 0 0 0 0 0 0 0 0 0 0 0 0 0 0 0 0 0 0 0 0 0 0 0 0 0 0 0 0 0 0 5 4 5 5 1 1 15 30 98 42 59 31 11 99 54 95 120
0 0 0 0 0 0 0 0 0 0 0 0 0 0 0 0 0 0 0 0 0 0 0 0 0 0 0 0 0 0 2 6 4 5 3 4 11 2 1 16 34 34 71 50 34 104 110 139 177
0 0 0 0 0 0 0 0 0 0 0 0 0 0 0 0 0 0 0 0 0 0 0 0 0 0 0 0 0 1 3 0 0 0 4 5 16 22 11 59 35 64 42 37 102 132 118 211 241
0 0 0 0 0 0 0 0 0 0 0 0 0 0 0 0 0 0 0 0 0 0 0 0 0 0 0 0 0 2 1 6 10 1 1 1 8 19 4 39 67 75 60 44 176 201 436 471 335
0 0 0 0 0 0 0 0 0 0 0 0 0 0 0 0 0 0 0 0 0 0 0 0 0 0 0 0 0 2 3 3 2 5 3 0 4 8 21 15 44 47 67 120 188 260 241 355 345
0 0 0 0 0 0 0 0 0 0 0 0 0 0 0 0 0 0 0 0 0 0 0 0 0 0 0 0 0 1 2 4 2 0 4 5 15 38 61 79 100 116 196 316 363 330 391 375 467
0 0 0 0 0 0 0 0 0 0 0 0 0 0 0 0 0 0 0 0 0 0 0 0 0 0 0 0 0 1 2 3 2 13 1 0 8 19 35 161 225 136 198 368 307 233 254 454 488
0 0 0 0 0 0 0 0 0 0 0 0 0 0 0 0 0 0 0 0 0 0 0 0 0 0 0 0 0 0 23 19 86 159 144 105 144 203 193 268 292 213 335 380 322 256 253 396 315
0 0 0 0 0 0 0 0 0 0 0 0 0 0 0 0 0 0 0 0 0 0 0 0 0 0 0 0 0 10 40 50 80 138 170 262 329 365 285 348 297 436 245 528 465 488 326 349 162
0 0 0 0 0 0 0 0 0 0 0 0 0 0 0 0 0 0 0 0 0 0 0 0 0 0 0 0 2 29 57 76 98 85 88 208 261 259 338 272 295 265 478 613 581 467 428 405 159
0 0 0 0 0 0 0 0 0 0 0 0 0 0 0 0 0 0 0 0 0 0 0 0 0 0 0 2 10 35 47 44 95 32 14 48 124 93 277 335 320 495 518 607 604 475 371 163 407
0 0 0 0 0 0 0 0 0 0 0 0 0 0 0 0 0 0 0 0 0 0 0 0 0 0 0 0 3 1 5 23 8 13 36 44 27 42 167 166 245 440 376 438 460 418 361 318 346
0 0 0 0 0 0 0 0 0 0 0 0 0 0 0 0 0 0 0 0 0 0 0 0 0 0 0 0 5 4 29 23 7 25 27 46 72 70 108 174 217 335 296 328 405 256 310 283 318
0 0 0 0 0 0 0 0 0 0 0 0 0 0 0 0 0 0 0 0 0 0 0 0 0 0 0 0 18 32 34 22 21 23 61 77 93 82 78 153 210 205 287 347 313 238 265 315 263
0 0 0 0 0 0 0 0 0 0 0 0 0 0 0 0 0 0 0 0 0 0 0 0 0 0 0 0 0 6 8 68 65 73 84 136 146 71 129 101 96 138 197 183 196 196 241 402 494
0 0 0 0 0 0 0 0 0 0 0 0 0 0 0 0 0 0 0 0 0 0 0 0 0 0 0 0 0 0 0 33 18 41 3 21 36 78 132 128 126 50 85 19 100 269 318 337 415
0 0 0 0 0 0 0 0 0 0 0 0 0 0 0 0 0 0 0 0 0 0 0 0 0 0 0 0 0 0 0 0 18 9 39 21 38 37 72 109 58 32 39 3 15 61 126 89 113
0 0 0 0 0 0 0 0 0 0 0 0 0 0 0 0 0 0 0 0 0 0 0 0 0 0 0 0 0 0 0 0 0 22 13 42 54 34 39 24 79 55 15 48 68 78 87 44 2
0 0 0 0 0 0 0 0 0 0 0 0 0 0 0 0 0 0 0 0 0 0 0 0 0 0 0 0 0 0 0 0 0 0 19 25 21 61 61 18 107 167 122 36 39 50 29 2 0
0 0 0 0 0 0 0 0 0 0 1 35 0 0 0 0 0 0 0 0 0 0 0 0 0 0 0 0 0 0 0 0 0 0 1 2 0 0 0 12 7 31 131 68 26 33 49 25 10
0 0 0 0 0 0 0 0 0 0 81 156 32 0 0 0 0 0 0 0 0 0 0 0 0 0 0 0 0 0 0 0 0 0 0 0 0 0 0 0 0 20 56 50 40 104 82 92 25
0 0 0 0 0 0 0 0 0 11 61 209 121 0 0 0 0 0 0 0 0 0 0 0 0 0 0 0 0 0 0 0 0 0 0 0 0 0 0 0 0 0 3 22 50 22 6 32 5

GFSSGP_con_mlcape_015.txt.gz
CAPE
0 0 1 1 0 0 0 15 0 0 0 0 0 0 0 0 0 0 0 0 0 0 0 0 0 44 370 369 336 262 284 352 212 11 0 0 0 0 0 0 0 0 7 17 87 52 3 9 32
0 0 0 0 0 10 0 0 0 0 0 0 0 0 0 0 0 0 0 0 0 0 0 0 0 0 0 306 623 658 641 411 252 96 23 20 12 0 0 0 0 0 2 9 53 126 65 0 44
0 0 0 16 28 22 2 0 0 0 0 0 0 0 0 0 0 0 0 0 0 0 0 0 0 0 64 533 870 748 311 0 0 0 5 40 44 38 15 6 0 1 3 16 15 58 177 26 24
0 0 0 0 0 0 0 0 0 0 0 0 0 0 0 0 0 0 0 0 0 0 0 0 0 0 0 452 1118 948 169 0 0 0 0 0 25 56 62 59 31 3 10 21 24 9 64 132 19
0 0 0 21 34 23 0 1 0 0 0 0 0 0 0 0 0 0 0 0 0 0 0 0 0 0 0 1 420 542 168 41 52 5 7 27 30 37 46 44 68 49 11 17 15 82 56 85 114
0 0 0 22 25 6 3 0 0 0 0 0 0 0 0 0 0 0 0 0 0 0 0 0 0 0 0 0 0 0 0 0 0 0 0 31 28 14 3 23 66 81 48 19 26 0 20 63 62
0 0 4 11 26 10 2 0 0 0 0 0 0 0 0 0 0 0 0 0 0 0 0 0 0 0 0 0 0 0 0 0 0 0 0 0 0 8 9 4 60 94 91 28 30 1 0 23 56
0 0 0 1 25 24 1 0 0 0 0 0 0 0 0 0 0 0 0 0 0 0 0 0 0 0 0 0 0 0 0 0 0 0 0 5 11 28 42 56 49 105 130 23 10 0 0 0 112
0 0 0 0 3 10 1 1 0 0 0 0 0 0 0 0 0 0 0 0 0 0 0 0 0 0 0 0 4 1 8 1 0 0 1 6 6 13 15 87 80 93 155 27 88 80 0 0 153
0 0 0 0 0 0 0 5 9 2 0 0 0 0 0 0 0 0 0 0 0 0 0 0 0 0 0 0 10 28 29 15 13 2 5 8 9 11 16 33 46 112 204 136 62 71 15 6 4
0 0 0 0 0 0 0 0 0 0 0 0 0 0 0 0 0 0 0 0 0 0 0 0 0 0 1 3 10 16 39 31 8 13 5 7 22 14 31 54 16 1 74 195 101 61 0 0 2
0 0 0 0 0 0 0 0 0 0 0 0 0 0 0 0 0 0 0 0 0 0 0 0 0 2 11 8 11 22 13 25 31 11 9 14 18 4 19 65 51 28 34 152 211 103 4 0 17
0 0 0 0 0 0 0 0 0 0 0 0 0 0 0 0 0 0 0 0 0 0 0 0 0 6 8 5 19 20 18 22 50 33 39 32 40 41 44 32 44 23 75 203 194 160 13 15 133
0 0 0 0 0 0 0 0 0 0 0 0 0 0 0 0 0 0 0 0 0 0 0 0 0 1 6 15 46 13 19 31 59 43 17 62 132 261 247 168 101 70 80 191 186 181 124 76 105
0 0 0 0 0 0 0 0 0 0 0 0 0 0 0 0 0 0 0 0 0 0 0 0 0 1 12 20 52 41 35 66 114 54 139 108 169 402 350 353 300 240 50 132 210 164 154 125 318
0 0 0 0 0 0 0 0 4 0 0 0 0 0 0 0 0 0 0 0 0 0 0 0 0 2 7 23 35 67 66 113 130 115 116 128 188 284 482 521 498 454 389 371 292 196 189 283 332
0 0 0 0 0 0 0 0 0 0 0 0 0 0 0 0 0 0 0 0 0 0 0 0 0 4 0 22 97 63 165 237 331 401 81 323 256 227 381 509 607 539 435 387 328 185 200 244 244
0 2 1 0 19 1 0 0 0 0 0 0 0 0 0 0 0 0 0 0 0 0 0 0 0 17 0 83 171 55 234 293 101 187 15 55 312 356 422 620 470 666 606 657 505 241 272 287 175
0 18 25 43 17 8 2 0 0 0 0 0 0 0 0 0 0 0 0 0 0 0 0 0 0 10 17 77 56 49 34 12 59 12 45 49 165 234 494 595 587 572 611 644 613 411 372 279 402
0 3 0 15 22 5 8 0 0 0 0 0 0 0 0 0 0 0 0 0 0 0 0 0 2 13 216 566 409 220 90 37 161 130 101 96 132 300 497 581 502 513 546 530 584 578 459 490 382
0 0 0 12 37 30 4 0 0 5 0 0 0 0 0 0 0 0 0 0 0 0 0 0 25 219 380 385 365 584 394 355 249 39 53 160 176 192 438 483 604 516 418 423 549 546 487 326 413
0 0 0 2 8 23 10 0 0 0 0 0 0 0 0 14 0 0 0 0 0 0 0 0 51 195 315 219 111 430 368 89 259 149 6 120 256 299 375 388 405 651 683 627 606 590 370 233 342
0 0 0 4 0 1 0 0 1 5 0 0 0 0 28 27 0 0 0 0 0 0 0 0 47 66 356 178 17 224 77 169 296 236 0 45 188 247 340 412 565 575 721 736 702 515 376 347 321
0 0 0 7 4 0 0 1 0 8 3 0 0 5 58 39 0 0 0 0 0 0 0 0 19 0 202 208 1 67 115 20 21 118 17 81 147 343 388 471 576 668 704 705 601 605 415 417 636
0 0 0 0 3 0 1 0 0 0 0 0 0 23 179 45 0 0 0 0 0 0 0 0 0 0 0 35 0 3 35 25 21 102 16 20 127 136 261 389 479 509 488 608 595 544 570 619 704
0 0 0 1 12 39 5 0 1 0 0 0 1 217 251 41 0 0 0 0 0 0 0 0 0 0 0 0 0 0 48 256 33 93 78 49 129 110 166 242 351 443 438 501 599 601 666 763 508
0 0 0 0 0 1 28 19 0 0 0 3 60 167 155 7 0 0 0 0 0 0 0 0 0 0 0 0 0 0 21 106 16 8 23 51 151 216 208 243 174 196 384 621 760 641 669 589 487
0 0 0 0 0 8 41 35 28 0 3 73 178 181 61 0 0 0 0 0 0 0 0 0 0 0 0 0 0 0 3 123 165 74 21 1 13 49 108 266 170 251 434 509 601 429 481 383 305
0 0 0 0 0 7 35 47 6 0 0 18 240 198 26 0 0 0 0 0 0 0 0 0 0 0 0 0 0 0 0 1 0 27 26 119 105 8 18 16 42 35 170 346 296 180 179 196 63
0 0 0 0 0 1 31 83 0 0 0 22 205 202 32 0 0 0 0 0 0 0 0 0 0 0 0 0 0 0 0 0 4 39 137 133 194 114 0 4 3 0 154 202 199 19 47 19 1

GFSSGP_con_mlcape_021.txt.gz
CAPE
0 0 0 0 0 0 0 0 7 0 0 0 0 0 0 0 0 0 0 0 0 0 0 0 0 0 0 0 40 151 168 151 137 85 9 0 0 0 0 0 0 0 0 0 0 0 26 1 0
0 0 0 0 0 0 0 0 0 0 0 0 0 0 0 0 0 0 0 0 0 0 0 3 0 0 0 1 131 294 453 377 336 283 242 17 0 0 0 0 0 1 0 0 0 0 1 22 5
0 0 0 0 0 0 0 0 0 0 0 0 0 0 0 0 0 0 0 0 0 0 0 30 5 6 110 599 873 818 699 617 541 318 70 2 33 31 16 15 44 39 29 6 6 3 0 3 54
0 0 0 0 0 0 0 0 0 0 0 0 0 0 0 0 0 0 0 0 0 0 0 15 6 41 60 12 103 767 783 729 464 153 3 0 0 6 37 33 30 64 66 48 9 7 3 0 0
0 0 0 0 0 0 0 0 0 0 0 0 0 0 0 0 0 0 0 0 0 0 0 0 0 0 0 0 0 0 0 92 99 18 3 1 17 38 47 59 50 41 43 46 60 4 8 2 9
0 0 0 0 0 0 0 0 0 0 0 0 0 0 0 0 0 0 0 0 0 0 0 0 0 0 0 0 0 0 0 0 0 0 0 0 8 9 16 18 41 37 4 7 78 71 5 17 14
0 0 0 0 0 0 0 0 0 0 0 0 0 0 0 0 0 0 0 0 0 0 0 0 0 0 0 0 0 0 0 0 0 0 0 0 0 0 1 7 14 17 12 3 55 147 7 0 1
0 0 0 0 0 0 0 0 0 0 0 0 0 0 0 0 0 0 0 0 0 0 0 0 0 0 0 0 0 0 0 0 0 0 0 0 0 0 0 1 4 15 38 36 52 231 74 4 0
0 0 0 0 0 0 0 0 0 0 0 0 0 0 0 0 0 0 0 0 0 0 0 0 0 0 0 0 0 0 0 2 8 1 0 0 0 0 0 0 9 46 76 162 232 267 243 19 17
0 0 0 0 0 0 0 0 0 0 0 0 0 0 0 0 0 0 0 0 0 0 0 0 0 0 0 0 0 0 0 12 5 0 0 0 0 0 0 4 6 20 102 326 358 457 325 175 2
0 0 0 0 0 0 0 0 0 0 0 0 0 0 0 0 0 0 0 0 0 0 0 0 0 0 0 0 0 0 0 0 1 0 0 0 0 0 0 0 0 0 11 117 237 363 224 61 24
0 0 0 0 0 0 0 0 0 0 0 0 0 0 0 0 0 0 0 0 0 0 0 0 0 0 0 0 0 0 0 0 0 0 0 0 0 0 0 0 0 0 0 40 159 159 217 77 55
0 0 0 0 0 0 0 0 0 0 0 0 0 0 0 0 0 0 0 0 0 0 0 0 0 0 0 0 0 0 0 0 0 0 1 6 0 0 0 0 0 0 0 9 83 153 114 31 47
1 0 0 0 4 0 0 0 0 0 0 0 0 0 0 0 0 0 0 0 0 0 0 0 0 0 0 0 0 0 0 0 0 0 2 21 6 0 0 0 2 0 0 12 41 142 129 105 41
0 0 0 0 0 0 0 0 0 0 0 0 0 0 0 0 0 0 0 0 0 0 0 0 0 0 0 0 0 0 0 0 0 0 6 34 15 9 0 0 15 15 0 0 27 62 54 70 69
0 0 0 0 0 0 0 0 0 0 0 0 0 0 0 0 0 0 0 0 0 0 0 0 0 0 1 0 0 0 0 0 0 1 26 26 32 36 28 32 27 39 0 0 0 49 63 76 83
0 0 0 0 0 0 0 0 0 0 0 0 0 0 0 0 0 0 0 0 0 0 0 0 0 0 20 0 43 0 36 0 0 1 5 5 1 2 76 51 14 66 0 2 11 91 86 67 53
0 0 0 0 0 0 0 0 0 0 0 0 0 1 1 0 0 0 0 0 0 0 0 0 0 5 9 120 17 32 14 4 0 11 0 6 0 9 120 92 27 56 0 14 13 40 85 69 13
0 0 0 0 0 0 0 0 0 1 12 0 14 0 0 0 0 0 0 0 0 0 0 0 1 26 75 136 120 4 7 12 0 0 0 0 15 8 125 99 101 17 5 1 18 62 37 18 70
0 0 0 0 0 0 0 0 10 1 7 9 0 0 0 0 0 0 0 0 0 0 0 0 1 66 373 177 293 137 20 23 1 7 7 49 36 69 131 88 8 54 0 14 83 99 0 131 147
0 0 0 0 0 0 0 3 6 12 16 0 0 0 0 0 0 0 0 0 0 0 0 0 41 175 372 101 59 18 6 9 3 4 2 46 48 104 75 145 81 90 5 0 32 29 34 86 131
0 0 0 0 0 0 0 0 0 0 0 0 0 0 0 0 0 0 0 0 0 0 0 0 87 267 285 106 75 1 0 0 0 24 0 13 82 180 251 287 194 75 91 0 35 29 24 73 70
0 0 0 0 0 0 0 0 0 0 0 0 0 0 0 0 0 0 0 0 0 0 0 0 82 191 264 105 54 8 0 3 1 0 0 16 70 116 221 227 275 96 76 63 70 59 88 59 41
0 0 0 0 0 0 0 0 0 0 0 0 0 0 0 0 0 0 0 0 0 0 0 7 60 53 199 43 21 0 0 0 0 0 5 26 65 134 226 352 245 161 6 111 84 49 111 67 31
0 0 0 0 0 0 0 0 0 0 0 0 0 3 11 3 0 0 0 0 0 0 0 0 44 3 33 15 11 0 0 0 0 0 24 15 40 131 195 264 258 222 118 141 74 84 88 24 44
0 0 0 0 0 0 0 0 0 0 0 0 11 67 31 1 0 0 0 0 0 0 0 0 27 0 6 22 8 13 0 0 0 29 56 45 81 143 220 185 237 261 275 184 140 121 111 107 53
0 0 0 0 7 4 0 0 0 0 0 0 4 61 43 0 0 0 0 0 0 0 0 0 10 0 1 3 8 35 0 0 0 3 25 31 76 153 184 162 214 255 225 204 110 95 85 61 124
0 0 0 0 0 0 0 0 0 0 0 0 0 52 39 0 0 0 0 0 0 0 0 0 0 0 0 0 0 30 7 25 40 2 0 29 43 66 101 183 197 151 131 146 87 90 119 103 33
0 0 7 1 0 0 0 0 0 0 0 0 15 60 13 0 0 0 0 0 0 0 0 0 0 0 0 0 0 12 0 22 31 10 2 29 57 84 134 207 152 127 117 161 123 160 75 24 5
0 0 0 0 0 0 0 0 0 0 0 0 50 33 0 0 0 0 0 0 0 0 0 0 0 0 0 0 0 0 0 51 12 36 3 12 10 22 98 159 146 142 143 148 113 113 19 9 8

GFSSGP_con_mlcape_024.txt.gz
CAPE
0 0 0 0 0 0 0 0 0 0 0 0 0 0 0 0 0 0 0 0 0 0 0 0 0 0 0 1 27 39 22 17 27 21 2 0 0 0 0 0 0 0 0 0 0 0 0 17 4
0 0 0 0 0 0 0 0 0 0 0 0 0 0 0 0 0 0 0 0 0 0 0 0 27 30 41 49 146 208 275 308 326 261 130 74 19 0 0 0 0 0 0 0 0 0 0 0 15
0 0 0 0 0 0 0 0 0 0 0 0 0 0 0 0 0 0 0 0 0 0 0 9 206 144 170 113 259 429 521 567 669 547 261 306 53 34 16 0 2 9 27 13 8 2 0 0 4
0 0 0 0 0 0 0 0 0 0 0 0 0 0 0 0 0 0 0 0 0 0 0 68 300 203 61 116 376 704 853 1026 850 527 247 87 28 32 51 70 73 42 55 47 20 10 1 1 0
0 0 0 0 0 0 0 0 0 0 0 0 0 0 0 0 0 0 0 0 0 0 39 181 8 0 0 40 0 2 21 72 278 398 233 38 22 26 37 38 29 19 12 17 19 53 5 6 0
0 0 0 0 0 0 0 0 0 0 0 0 0 0 0 0 0 0 0 0 0 0 22 0 0 0 0 0 0 0 0 0 0 3 32 39 51 66 52 44 23 6 16 28 67 68 80 11 11
0 0 0 0 0 0 0 0 0 0 0 0 0 0 0 0 0 0 0 0 0 0 0 0 0 0 0 0 0 0 0 0 0 0 0 0 0 0 0 6 23 33 41 42 32 35 93 60 28
0 0 0 0 0 0 0 0 0 0 0 0 0 0 0 0 0 0 0 0 0 0 0 0 0 0 0 0 0 0 0 0 0 0 0 0 0 0 0 1 8 14 12 15 20 10 78 124 22
0 0 0 0 0 0 0 0 0 0 0 0 0 0 0 0 0 0 0 0 0 0 0 0 0 0 0 0 0 16 25 3 1 10 6 2 0 0 0 0 0 9 22 12 8 106 113 136 30
0 0 0 0 0 0 0 0 0 0 0 0 0 0 0 0 0 0 0 0 0 0 0 0 0 0 0 0 0 0 0 0 8 1 0 1 0 0 0 0 0 4 10 81 116 171 276 267 24
0 0 0 0 0 0 0 0 0 0 0 0 0 0 0 0 0 0 0 0 0 0 0 0 0 0 0 0 0 0 0 0 0 0 0 0 0 0 0 0 0 0 0 1 14 135 340 326 148
0 0 0 0 0 0 0 0 0 0 0 0 0 0 0 0 0 0 0 0 0 0 0 0 0 0 0 0 0 0 0 0 0 0 0 0 0 0 0 0 0 0 0 0 0 0 188 218 187
0 0 0 0 0 0 0 0 0 0 0 0 0 0 0 0 0 0 0 0 0 0 0 0 0 0 0 0 0 0 0 0 0 0 0 0 0 0 0 0 0 0 0 0 0 5 168 265 162
0 0 0 0 0 0 0 0 0 0 0 0 0 0 0 0 0 0 0 0 0 0 0 0 0 0 0 0 0 0 0 0 0 0 0 0 0 2 0 0 0 0 0 0 0 23 155 227 99
0 0 0 0 0 0 0 0 0 0 0 0 0 0 0 0 0 0 0 0 0 0 0 0 0 0 0 0 0 0 0 0 0 0 0 0 1 0 0 0 0 0 0 0 0 31 90 139 62
0 0 0 0 0 0 0 0 0 0 0 0 0 0 0 0 0 0 0 0 0 0 0 0 0 0 0 0 0 0 0 0 0 0 0 10 0 0 0 0 1 0 6 0 0 9 62 118 82
0 0 0 0 0 0 0 0 0 0 0 0 0 0 0 0 0 0 0 0 0 0 0 0 0 0 0 0 9 0 0 0 0 0 0 0 4 0 0 9 11 1 0 0 0 7 44 61 48
0 0 0 0 0 0 0 0 0 0 0 0 0 0 0 0 0 0 0 0 0 0 0 0 0 1 0 32 23 0 0 0 0 0 0 0 0 0 2 12 8 3 0 0 0 6 80 82 35
0 0 0 0 0 0 0 0 0 0 0 0 0 0 0 0 0 0 0 0 0 0 0 0 0 0 34 103 50 4 0 0 0 0 0 0 1 13 0 33 27 0 0 0 3 10 50 42 38
0 0 0 0 0 0 0 0 0 0 0 0 0 0 0 0 0 0 0 0 0 0 0 0 0 14 204 118 29 15 0 0 0 0 0 6 18 24 66 39 35 0 0 0 0 1 8 27 27
0 0 0 0 0 0 0 0 0 0 0 0 3 0 0 0 0 0 3 0 0 0 0 0 5 80 276 62 7 0 0 0 0 0 0 0 9 37 71 39 0 0 0 4 13 15 1 41 29
0 0 0 0 0 0 0 0 0 0 0 0 0 0 0 0 0 0 0 0 0 0 0 0 34 124 222 74 6 0 0 0 0 0 0 0 45 101 69 147 39 23 0 0 12 5 0 34 35
0 0 0 0 0 0 0 0 0 0 0 0 0 0 0 0 0 0 0 0 0 0 0 0 21 107 157 36 3 0 0 0 0 0 0 6 26 91 132 135 100 33 0 0 0 0 12 23 10
0 0 0 0 0 0 0 0 0 0 0 0 0 0 0 0 0 0 0 0 0 0 0 0 19 71 95 1 0 0 0 0 0 0 4 13 45 90 104 103 93 31 5 0 0 0 16 23 29
0 0 0 0 0 0 0 0 0 0 0 0 0 0 0 0 0 0 0 0 0 0 0 4 13 5 14 4 0 0 0 0 0 1 8 21 25 97 140 155 129 7 32 2 3 8 7 24 20
0 0 0 0 0 0 0 0 0 0 0 0 0 0 0 0 0 0 0 0 0 0 0 5 4 0 0 0 0 0 0 0 0 1 13 5 66 105 121 188 174 96 18 20 12 20 19 23 11
0 0 0 0 0 0 0 0 0 0 0 0 0 0 0 0 0 0 0 0 0 0 0 0 2 0 0 0 0 0 0 0 0 0 3 11 73 148 104 140 157 130 89 20 10 17 11 12 14
0 0 0 0 0 0 0 0 0 0 0 0 0 0 0 0 0 0 0 0 0 0 0 0 1 0 0 0 0 0 1 14 1 0 2 1 21 70 106 134 140 124 89 43 21 5 11 17 15
0 0 0 0 0 0 0 0 0 0 0 0 0 0 0 0 0 0 0 0 0 0 0 0 0 0 0 0 0 0 14 20 9 2 18 1 19 81 99 82 63 82 82 60 59 32 34 12 0
0 0 0 0 0 0 0 0 0 0 0 0 0 0 0 0 0 0 0 0 0 0 0 0 0 0 0 0 0 0 3 4 7 0 0 6 10 42 57 66 65 57 46 70 51 43 20 8 5

GFSSGP_con_mlcape_030.txt.gz
CAPE
0 0 0 0 0 0 0 0 0 0 0 0 0 0 0 0 0 0 0 0 0 0 0 24 54 0 0 0 0 0 0 0 0 0 0 0 0 0 0 0 0 0 0 0 0 0 0 0 2
0 0 0 0 0 0 0 0 0 0 0 0 0 0 0 0 0 0 0 1 0 0 0 0 43 0 0 0 0 0 0 0 0 0 0 0 0 0 0 0 0 0 0 1 0 0 0 0 0
0 0 0 0 0 0 0 0 0 0 0 0 0 0 0 0 0 0 0 6 0 0 0 0 45 54 29 5 18 35 34 25 23 36 19 36 81 51 28 7 0 1 6 14 11 9 0 1 0
0 0 0 0 0 0 0 0 0 0 0 0 0 0 0 0 0 0 0 0 0 0 4 0 79 105 65 115 200 187 96 155 227 182 186 333 295 186 123 40 11 17 4 14 21 29 31 0 1
0 0 0 0 0 0 0 0 0 0 0 0 0 0 0 0 0 0 0 0 0 1 6 26 74 129 160 264 333 260 253 312 361 424 474 514 393 313 116 77 82 10 30 36 17 33 23 38 0
0 0 0 0 0 0 0 0 0 0 0 0 0 0 0 0 0 0 0 0 0 0 0 14 164 173 203 417 544 490 311 357 501 633 556 301 196 170 91 68 61 51 45 28 36 41 41 39 74
0 0 0 0 0 0 0 0 0 0 0 0 0 0 0 0 0 0 0 0 0 0 0 0 157 323 420 615 584 385 417 631 419 172 92 49 60 57 73 44 36 12 9 9 27 27 43 58 74
0 0 0 0 0 0 0 0 0 0 0 0 0 0 0 0 0 0 0 0 0 0 0 0 154 482 493 540 480 503 352 230 86 88 96 26 4 8 4 0 0 1 10 25 38 4 2 62 58
0 0 0 0 0 0 0 0 0 0 0 0 0 0 0 0 0 0 0 0 0 0 0 11 92 283 290 301 125 92 114 163 143 159 73 28 0 0 0 0 0 0 2 6 8 1 1 9 14
0 0 0 0 0 0 0 0 0 0 0 0 0 0 0 0 0 0 0 0 0 0 0 0 79 62 11 0 0 14 5 34 89 45 0 20 0 0 0 0 0 0 4 8 13 24 65 82 20
0 0 0 0 0 0 0 0 0 0 0 0 0 0 0 0 0 0 0 0 0 0 0 0 0 0 0 0 0 0 0 0 3 16 0 0 0 0 5 0 0 0 0 0 0 0 1 5 23
0 0 0 0 0 0 0 0 0 0 0 0 0 0 0 0 0 0 0 0 0 0 0 0 0 0 0 0 0 0 0 0 0 0 0 0 0 0 0 0 0 0 0 0 0 0 0 0 12
0 0 0 0 0 0 0 0 0 0 0 0 0 0 0 0 0 0 0 0 0 0 0 0 0 0 0 0 0 0 0 0 0 0 0 0 0 0 0 0 0 0 0 0 0 0 0 0 8
0 0 0 0 0 0 0 0 0 0 0 0 0 0 0 0 0 0 0 0 0 0 0 0 0 0 0 0 0 0 0 0 0 0 0 0 0 0 0 0 0 0 0 0 0 0 0 0 0
0 0 0 0 0 0 0 0 0 0 0 0 0 0 0 0 0 0 0 0 0 0 0 0 0 0 0 0 0 0 0 0 0 0 0 0 0 0 0 0 0 0 0 0 0 0 0 0 0
0 0 0 0 0 0 0 0 0 0 0 0 0 0 0 0 0 0 0 0 0 0 0 0 0 0 0 0 0 0 0 0 0 0 0 0 0 0 0 0 0 0 0 0 0 0 0 0 0
0 0 0 0 0 0 0 0 0 0 0 0 0 0 0 0 0 0 0 0 0 0 0 0 0 0 0 0 0 0 0 0 0 0 0 0 0 0 0 0 0 0 0 0 0 0 0 0 14
0 0 0 0 0 0 0 0 0 0 0 0 0 0 0 0 0 0 0 0 0 0 0 0 0 0 0 0 0 0 0 0 0 0 0 0 0 0 0 0 0 0 0 0 0 0 0 4 34
0 0 0 0 0 0 0 0 0 0 0 0 0 0 0 0 0 0 0 0 0 0 0 0 0 0 0 0 1 0 0 0 0 0 0 0 0 0 0 0 0 0 0 0 0 0 0 19 34
0 0 0 0 0 0 0 0 0 0 0 0 0 0 0 0 0 0 0 0 0 0 0 0 0 0 2 0 0 0 0 0 0 0 0 0 0 0 0 0 0 0 0 0 0 0 11 14 52
0 0 0 0 0 0 0 0 0 0 0 0 0 0 0 0 0 0 0 0 0 0 0 0 0 0 20 0 0 0 0 0 0 0 0 0 0 0 0 0 0 0 0 0 0 0 16 52 51
0 0 0 0 0 0 0 0 0 0 0 0 0 0 0 0 0 0 0 0 0 0 0 0 0 0 35 0 0 0 0 0 0 0 0 0 0 0 0 0 0 0 0 0 0 0 6 18 67
0 0 0 0 0 0 0 0 0 0 0 0 0 0 0 0 0 0 0 0 0 0 0 0 0 4 13 4 0 0 0 0 0 0 0 0 0 0 20 8 0 0 0 0 0 0 0 2 14
0 0 0 0 0 0 0 0 0 0 0 0 0 0 0 0 0 0 0 0 0 0 0 0 0 1 7 0 0 0 0 0 0 0 0 0 0 4 22 34 9 0 0 0 0 0 0 0 10
0 0 0 0 0 0 0 0 0 0 0 0 0 0 0 0 0 0 0 0 0 0 0 0 0 0 5 0 0 0 0 0 0 0 0 0 0 20 22 37 23 0 0 0 0 0 2 19 22
0 0 0 0 0 0 0 0 0 0 0 0 0 0 0 0 0 0 0 0 0 0 0 0 0 0 0 0 0 0 0 0 0 0 0 0 15 30 19 16 2 0 0 0 0 0 2 11 24
0 0 0 0 0 0 0 0 0 0 0 0 0 0 0 0 0 0 0 0 0 0 0 0 0 0 0 0 0 0 0 0 0 0 0 0 6 22 18 39 4 0 0 0 0 0 0 0 10
0 0 0 0 0 0 0 0 0 0 0 0 0 0 0 0 0 0 0 0 0 0 0 0 0 0 0 0 0 0 0 0 0 0 0 0 0 9 19 14 3 0 0 0 0 0 0 0 0
0 0 0 0 0 0 0 0 0 0 0 0 0 0 0 0 0 0 0 0 0 0 0 0 0 0 0 0 0 0 0 0 0 0 0 0 1 4 0 7 4 0 0 0 0 0 0 0 0
0 0 0 0 0 0 0 0 0 0 0 0 0 0 0 0 0 0 0 0 0 0 0 0 0 0 0 0 0 0 0 0 0 0 0 0 0 5 0 0 0 0 0 0 0 0 0 0 0

GFSSGP_con_mlcape_033.txt.gz
CAPE
0 0 0 0 0 0 0 0 0 0 0 0 0 0 0 0 0 0 0 0 0 0 0 17 39 0 0 0 0 0 0 0 0 0 0 0 0 0 0 0 0 0 0 0 0 0 0 0 0
0 0 0 0 0 0 0 0 0 0 0 0 0 0 0 0 0 0 0 0 0 0 0 7 49 0 0 0 0 0 0 0 0 0 0 0 0 0 0 0 0 0 0 0 0 0 0 0 0
0 0 0 0 0 0 0 0 0 0 0 0 0 0 0 0 0 0 0 0 0 0 1 80 33 6 0 9 27 27 12 0 0 0 5 0 0 0 0 0 0 0 4 4 5 4 0 1 3
0 0 0 0 0 0 0 0 0 0 0 0 0 0 0 0 0 0 0 0 0 0 20 87 48 59 33 39 33 55 0 44 95 115 131 113 145 241 248 225 123 20 4 11 12 17 10 38 13
0 0 0 0 0 0 0 0 0 0 0 0 0 0 0 0 0 0 0 22 0 0 12 94 132 171 181 103 104 147 114 209 203 187 297 324 488 460 395 321 202 132 65 45 28 46 0 26 76
0 0 0 0 0 0 0 0 0 0 0 0 0 0 0 0 0 0 0 18 28 13 20 147 268 306 210 240 298 400 383 348 288 432 575 605 571 465 355 140 117 94 78 47 38 24 12 30 48
0 0 0 0 0 0 0 0 0 0 0 0 0 0 0 0 0 0 0 40 51 117 54 209 418 540 380 405 510 638 533 454 516 643 671 575 323 225 177 112 83 63 77 59 43 29 50 51 50
0 0 0 0 0 0 0 0 0 0 0 0 0 0 0 0 0 0 0 18 34 95 157 212 407 604 529 606 656 714 599 552 626 828 591 174 177 79 17 0 0 0 0 2 6 29 81 51 73
0 0 0 0 0 0 0 0 0 0 0 0 0 0 0 0 0 0 0 4 13 54 107 166 206 452 573 650 805 813 695 758 750 513 270 158 36 15 10 0 0 0 0 0 0 5 7 24 45
0 0 0 0 0 0 0 0 0 0 0 0 0 0 0 0 0 0 0 0 0 7 57 110 164 387 641 648 617 565 361 248 394 335 281 204 117 45 0 0 0 0 0 1 2 10 17 90 42
0 0 0 0 0 0 0 0 0 0 0 0 0 0 1 0 0 0 0 0 0 4 52 84 158 378 488 379 193 27 51 85 152 240 359 187 96 96 42 10 0 0 0 6 9 31 5 9 22
0 0 0 0 0 0 0 0 0 0 0 0 0 0 0 0 0 0 0 0 0 0 11 33 143 219 283 51 0 0 0 0 0 4 143 226 127 66 27 11 0 0 0 0 0 0 0 0 1
0 0 0 0 0 0 0 0 0 0 0 0 0 0 0 0 0 0 0 0 0 0 0 0 65 156 65 0 0 0 0 0 0 0 0 0 0 27 13 0 2 3 4 0 0 0 0 0 0
0 0 0 0 0 0 0 0 0 0 0 0 0 0 0 0 0 0 0 0 0 0 0 0 11 39 0 0 2 1 0 0 0 0 0 0 0 0 0 5 21 34 31 17 0 0 1 7 14
0 0 0 0 0 0 0 0 0 0 0 0 0 0 0 0 0 0 0 0 0 0 0 0 0 0 0 0 8 9 0 0 0 0 0 0 0 0 1 19 44 42 40 32 37 53 9 15 25
0 0 0 0 0 0 0 0 0 0 0 0 0 0 0 0 0 0 0 0 0 0 0 0 0 0 2 12 3 5 4 5 2 50 57 8 6 14 30 53 71 104 59 59 71 58 15 13 17
0 0 0 0 0 0 0 0 0 0 0 0 0 0 0 0 0 0 0 0 0 0 0 0 0 0 3 4 3 11 20 82 117 119 95 10 17 39 37 80 104 93 98 79 102 76 53 18 35
0 0 0 0 0 0 0 0 0 0 0 0 0 0 0 0 0 0 0 0 0 0 0 0 0 1 10 0 9 48 115 91 129 168 127 0 32 25 39 61 64 71 84 105 67 70 67 62 89
0 0 0 0 0 0 0 0 0 0 0 0 0 0 0 0 0 0 0 0 0 0 0 0 0 4 2 0 23 143 124 142 111 129 47 4 22 16 40 33 58 42 74 115 109 65 56 82 167
0 0 0 0 0 0 0 0 0 0 0 0 0 0 0 0 0 0 0 0 0 0 0 0 2 0 0 27 136 135 80 52 75 54 46 15 0 16 57 64 39 89 73 75 22 45 85 162 221
0 0 0 0 0 0 0 0 0 0 0 0 0 0 0 0 0 0 0 0 0 0 0 0 0 0 4 84 50 27 0 0 2 0 9 0 0 21 128 52 84 131 100 35 18 125 187 219 206
0 0 0 0 0 0 0 0 0 0 0 0 0 0 0 0 0 0 0 0 0 0 0 0 0 0 106 53 60 48 22 4 0 0 0 0 5 43 95 132 174 89 79 32 26 158 203 171 112
0 0 0 0 0 0 0 0 0 0 0 0 0 0 0 0 0 0 0 0 0 0 0 0 0 33 106 61 46 17 0 0 0 0 0 13 73 137 187 178 125 101 95 42 49 123 156 157 102
0 0 0 0 0 0 0 0 0 0 0 0 0 0 0 0 0 0 0 0 0 0 0 0 0 64 57 38 4 0 0 0 0 5 73 19 57 192 240 315 247 158 96 22 27 132 113 140 104
0 0 0 0 0 0 0 0 0 0 0 0 0 0 0 0 0 0 0 0 0 0 0 0 2 26 41 2 0 0 0 0 0 0 65 1 13 244 304 315 381 288 145 21 33 57 145 118 76
0 0 0 0 0 0 0 0 0 0 0 0 0 0 0 0 0 0 0 0 0 0 0 0 0 28 26 2 0 0 0 0 0 0 16 74 135 306 295 338 358 156 73 0 61 120 164 157 138
0 0 0 0 0 0 0 0 0 0 0 0 0 0 0 0 0 0 0 0 0 0 0 0 1 32 11 1 0 0 0 0 0 13 60 140 165 263 324 272 167 98 26 0 30 66 87 19 18
0 0 0 0 0 0 0 0 0 0 0 0 0 0 0 0 0 0 0 0 0 0 0 0 7 6 15 2 0 0 0 11 0 12 24 121 147 239 251 283 83 144 25 0 38 63 65 45 73
0 0 0 0 0 0 0 0 0 0 0 0 0 0 0 0 0 0 0 0 0 0 0 0 0 0 3 0 0 0 16 2 0 19 63 112 157 201 205 219 114 91 42 21 26 45 43 54 59
0 0 0 0 0 0 0 0 0 0 0 0 0 0 0 0 0 0 0 0 0 0 0 0 0 0 0 0 0 4 0 0 2 46 58 116 112 141 208 210 131 52 50 11 9 11 8 0 0

GFSSGP_con_mlcape_036.txt.gz
CAPE
0 0 0 0 0 0 0 0 0 0 0 0 0 0 0 0 0 0 0 24 42 0 31 86 14 0 0 0 0 0 0 0 0 0 0 0 0 0 0 0 0 0 0 0 0 0 0 0 0
0 0 0 0 0 0 0 5 0 0 0 0 0 0 0 0 0 0 0 5 25 0 41 99 68 0 0 0 0 0 0 0 0 0 0 0 0 0 0 0 0 0 0 0 0 1 0 0 0
0 0 0 0 0 0 15 0 0 0 0 0 0 0 0 0 0 0 15 24 25 0 24 120 116 1 0 0 0 0 0 0 0 0 0 0 0 0 0 0 0 2 3 4 0 1 11 8 4
0 0 0 0 0 0 28 0 0 0 0 0 0 0 0 0 0 0 23 70 21 5 40 149 162 22 2 1 23 0 25 28 26 16 33 91 106 101 157 129 159 94 20 6 9 0 0 19 65
0 0 0 0 0 0 0 0 0 0 0 0 0 0 0 0 0 0 33 66 1 15 12 208 235 84 84 15 22 37 60 114 98 84 148 188 263 377 430 467 388 344 242 94 50 13 65 24 34
0 0 0 0 0 0 0 0 0 0 0 0 0 0 0 0 0 0 2 97 8 14 53 241 620 271 237 202 101 86 129 179 156 195 193 210 562 609 658 559 411 246 234 229 148 63 72 48 20
0 0 0 0 0 0 0 0 0 0 0 0 0 0 0 0 0 0 0 46 106 55 76 306 604 551 572 506 271 225 252 305 349 345 301 467 674 544 270 218 186 204 188 198 195 66 57 59 56
0 0 0 0 0 0 0 0 0 0 0 0 0 0 0 0 0 0 4 3 100 124 120 213 454 518 703 640 647 440 465 531 564 482 553 760 841 298 195 85 9 1 9 15 34 51 82 128 98
0 0 0 0 0 0 0 0 0 0 0 0 0 0 0 0 0 0 15 13 75 92 163 162 321 364 530 396 525 871 1012 971 923 660 804 649 46 33 85 61 5 34 0 0 0 1 18 54 16
0 0 0 0 0 0 0 0 0 0 0 0 0 0 0 9 5 12 18 21 71 99 134 205 305 394 465 333 513 1016 604 398 461 482 299 386 247 190 152 66 7 12 0 0 0 1 10 12 4
0 0 0 0 0 0 0 0 0 0 0 0 0 0 0 3 12 63 53 37 16 69 141 154 389 459 532 456 592 626 385 361 346 382 359 412 281 250 263 119 75 95 16 6 15 30 31 18 38
0 0 0 0 0 0 0 0 0 0 0 0 0 0 0 0 5 21 51 62 8 39 99 191 305 599 792 531 574 332 144 146 114 82 417 452 383 303 208 135 79 18 30 25 23 21 30 31 25
0 0 0 0 0 0 0 0 0 0 0 0 0 0 0 0 0 0 0 26 15 13 55 185 342 676 938 802 399 133 99 77 50 132 255 302 236 298 288 284 131 19 16 11 32 34 34 26 19
0 0 0 0 0 0 0 0 0 0 0 0 0 0 0 0 0 0 0 0 33 19 45 118 311 685 850 708 261 240 262 101 199 161 269 331 251 271 345 275 145 29 34 43 43 38 37 27 15
0 0 0 0 0 0 0 0 0 0 0 0 0 0 0 0 0 0 0 0 4 47 41 69 223 592 674 485 328 260 159 228 120 228 387 441 435 326 355 232 116 61 96 92 192 85 49 66 51
0 0 0 0 0 0 0 0 0 0 0 0 0 0 0 0 0 0 0 0 0 33 34 14 80 389 486 272 282 194 198 193 182 328 382 529 568 478 394 276 193 142 209 177 195 222 45 72 49
0 0 0 0 0 0 0 0 0 0 0 0 0 0 0 0 0 0 0 0 0 23 10 6 26 173 295 284 246 272 265 315 287 431 433 455 548 411 355 241 167 200 320 181 245 179 110 104 68
0 0 0 0 0 0 0 0 0 0 0 0 0 0 0 0 0 0 0 0 0 4 1 10 17 114 245 287 262 231 203 317 419 391 379 482 502 354 287 198 191 188 188 171 242 178 167 122 90
0 0 0 0 0 0 0 0 0 0 0 0 0 0 0 0 0 0 0 0 0 0 0 24 34 171 174 192 136 106 184 317 307 348 440 531 427 273 134 199 145 173 199 212 216 171 162 98 219
0 0 0 0 0 0 0 0 0 0 0 0 0 0 0 0 0 0 0 0 0 0 13 72 138 240 168 145 135 243 337 230 269 386 506 526 390 266 206 214 239 236 201 203 170 189 85 121 235
0 0 0 0 0 0 0 0 0 0 0 0 0 0 0 0 0 0 0 0 0 0 40 74 172 195 176 177 383 425 381 329 314 369 388 440 208 245 305 388 317 239 317 261 247 119 149 302 365
0 0 0 0 0 0 0 0 0 0 0 0 0 0 0 0 0 2 0 0 0 12 29 106 139 205 272 388 234 335 181 183 365 248 290 311 298 281 232 373 373 372 404 315 166 213 334 462 322
0 0 0 0 0 0 0 0 0 0 0 0 0 0 0 0 0 0 0 0 0 7 24 85 146 165 323 385 254 340 230 256 213 250 359 492 458 414 387 458 426 460 425 314 154 248 452 564 295
0 0 0 0 0 0 0 0 0 0 0 0 0 0 0 0 0 0 0 0 0 1 12 59 140 273 358 401 439 374 306 178 214 352 344 430 431 480 437 392 547 482 371 253 198 374 491 401 378
0 0 0 0 0 0 0 0 0 0 0 0 0 0 0 0 0 0 0 0 0 0 12 59 154 247 298 295 264 108 177 219 363 263 317 352 289 430 407 506 564 482 356 226 243 381 403 527 394
0 0 0 0 0 0 0 0 0 0 0 0 0 0 0 0 0 0 0 0 0 0 19 41 120 144 183 161 117 37 151 180 139 262 368 332 372 506 560 559 545 408 322 174 243 373 411 387 416
0 0 0 0 0 0 0 0 0 0 0 0 0 0 0 1 0 0 0 0 0 10 43 59 36 32 105 139 67 114 234 218 149 327 463 463 528 511 576 470 381 366 279 107 309 305 377 428 214
0 0 0 0 0 0 0 0 0 0 0 0 0 0 0 11 0 0 0 0 0 32 64 27 0 63 95 145 69 245 285 253 87 188 291 409 488 470 483 396 341 281 141 50 153 256 347 118 351
0 0 0 0 0 0 0 0 0 0 0 0 0 0 27 13 0 0 0 0 8 46 48 0 7 44 103 58 144 297 211 194 91 130 196 426 471 405 379 299 251 235 83 107 166 157 191 235 373
0 0 0 0 0 0 0 0 0 0 0 0 0 5 56 15 0 0 0 0 7 61 9 0 0 4 40 12 117 302 146 72 105 124 294 350 346 431 274 265 176 231 250 277 221 118 164 264 202

GFSSGP_con_mlcape_042.txt.gz
CAPE
0 0 0 0 0 0 0 0 0 72 5 0 0 0 0 0 0 0 0 0 25 174 4 0 0 0 0 0 0 0 0 0 0 0 0 0 0 0 0 0 0 0 0 0 0 0 0 0 0
0 0 0 0 0 0 0 0 18 6 26 0 0 0 0 0 0 0 0 0 14 248 73 0 0 0 0 0 0 0 0 0 0 0 0 0 0 0 0 0 0 0 0 0 0 0 0 0 0
0 0 0 0 0 0 0 0 0 0 0 0 0 0 0 0 0 0 20 1 9 466 191 18 0 0 0 0 0 0 0 0 0 0 0 0 0 0 0 0 0 0 6 9 17 17 1 1 5
0 0 0 0 0 0 1 19 66 4 0 0 0 0 0 0 0 0 0 0 0 115 355 168 0 0 0 0 0 0 0 0 0 0 0 0 0 0 0 0 0 0 1 67 101 49 32 11 2
0 0 0 0 0 0 0 0 1 10 1 8 3 0 0 0 0 0 0 0 0 0 225 353 130 0 7 0 0 0 0 0 0 0 14 15 10 41 138 199 229 296 345 323 281 244 96 81 93
0 0 0 0 0 0 0 0 28 37 10 6 9 0 0 0 0 0 0 0 0 0 24 508 220 43 48 68 35 0 0 6 3 23 26 21 95 156 254 446 526 571 463 333 206 238 255 125 97
0 0 0 0 0 0 0 0 1 1 2 0 0 0 0 0 1 0 0 9 9 0 1 684 393 294 74 103 134 33 29 79 66 102 60 124 157 213 305 433 383 394 302 216 284 256 240 168 116
0 0 0 0 0 0 0 0 0 0 1 4 0 0 0 7 16 0 0 0 31 60 20 429 629 469 351 259 288 225 115 113 108 167 221 274 253 200 96 121 341 189 170 122 56 49 71 121 161
0 0 0 0 0 0 0 0 0 0 0 0 0 0 0 0 19 5 1 0 2 67 88 94 703 1130 710 436 559 651 362 209 213 286 386 389 146 77 290 610 572 380 235 143 78 10 2 9 63
0 0 0 0 0 0 0 0 0 0 1 2 0 0 0 0 1 18 2 0 0 23 123 125 104 606 1068 650 522 832 617 630 514 465 508 435 415 672 529 328 609 365 245 157 70 1 0 0 0
0 0 0 0 0 0 0 0 0 0 0 2 1 0 0 0 0 0 0 0 0 3 2 185 190 272 702 556 458 1018 802 552 542 531 590 586 1000 868 658 405 426 267 196 161 208 74 3 1 0
0 0 0 0 0 0 0 0 1 13 2 1 1 0 1 0 0 0 0 0 0 0 0 0 331 334 512 542 631 1180 1111 938 757 894 893 1115 741 539 502 561 512 391 306 391 210 111 129 62 55
0 0 0 0 0 0 2 0 4 0 1 0 6 1 1 0 2 0 0 0 0 0 0 0 502 329 669 750 731 704 1070 1193 1056 880 979 752 682 697 848 821 630 476 416 240 222 106 112 33 31
0 0 0 0 0 0 5 0 0 0 0 0 2 0 0 9 6 0 0 0 0 0 0 0 700 446 864 678 885 939 1029 927 691 488 426 429 625 675 670 762 722 636 570 299 236 69 2 4 13
0 0 0 0 0 0 0 0 0 0 0 0 0 4 8 10 3 0 0 0 0 0 0 0 591 888 940 1139 794 1545 1147 665 373 302 425 606 705 752 737 737 669 615 565 366 232 76 1 92 4
0 0 0 0 0 0 5 0 0 0 0 0 0 5 11 5 1 0 0 0 0 0 0 6 327 1145 1191 1483 1382 1168 947 460 448 417 510 504 743 838 853 718 533 718 469 219 260 128 152 41 103
0 0 0 0 0 0 5 0 0 0 0 0 0 0 0 0 0 0 0 0 0 0 0 126 254 982 1328 1641 1756 1485 714 578 419 430 444 612 803 904 656 633 759 599 387 276 184 225 44 15 21
0 0 0 0 0 0 0 0 0 3 9 3 5 0 0 0 0 0 0 0 0 17 148 297 552 991 1412 1556 1520 1143 592 513 552 505 484 667 676 703 659 809 621 540 213 181 285 48 84 32 25
0 0 0 0 0 0 0 0 0 2 9 2 0 0 0 2 0 0 0 5 46 73 396 757 632 617 1306 1470 1173 795 542 458 510 467 592 551 619 570 522 655 644 382 137 258 281 135 121 70 90
0 0 0 0 0 0 0 0 1 1 0 0 0 0 0 0 12 6 4 85 115 263 476 608 549 848 1226 1043 727 516 430 467 499 611 602 644 604 709 575 586 440 419 459 307 316 162 131 98 53
0 0 0 0 0 0 0 0 0 0 1 2 0 0 0 0 0 0 18 266 306 372 431 485 622 1104 826 806 510 689 683 495 482 380 297 751 625 562 428 290 317 403 411 278 309 248 109 45 69
0 0 0 0 0 0 0 0 0 0 0 0 0 0 0 0 0 0 90 378 424 506 560 578 715 774 600 804 574 563 539 345 428 535 653 722 735 605 234 221 241 300 308 491 458 370 181 79 109
0 0 0 0 0 0 0 0 0 0 0 0 0 2 1 0 6 1 415 488 521 576 630 687 859 679 648 377 677 671 531 344 185 294 534 646 611 446 411 273 133 294 217 146 181 172 126 193 172
0 0 0 0 0 0 0 0 0 0 0 0 0 0 0 0 0 177 506 551 575 567 649 844 784 755 617 558 723 623 490 412 627 578 491 530 363 565 438 248 197 439 293 157 101 119 140 108 119
0 0 0 0 0 0 0 0 0 0 0 0 0 0 0 1 38 441 550 538 538 558 715 759 710 790 716 588 530 394 547 579 542 495 343 603 408 389 217 181 212 621 366 68 124 18 76 79 95
0 0 0 0 0 0 0 0 0 0 0 0 0 0 0 5 378 491 538 554 515 617 637 620 704 776 630 523 392 381 491 521 496 294 448 596 328 453 572 411 525 653 303 28 36 99 193 103 87
0 0 0 0 0 0 0 0 0 0 0 0 0 0 2 330 469 511 496 533 549 576 576 602 735 633 469 342 313 307 427 452 519 366 482 686 855 666 511 544 482 393 78 85 37 258 143 146 17
0 0 0 0 0 0 0 0 0 3 0 0 0 0 0 423 481 468 562 552 550 534 602 671 646 483 259 310 232 297 104 165 190 300 230 719 504 325 241 463 396 139 42 155 294 165 469 151 100
0 0 0 0 0 0 0 0 96 11 0 0 0 0 3 530 499 517 507 563 546 499 562 586 495 214 201 203 239 208 242 229 135 163 356 572 558 343 189 213 66 21 38 113 107 140 287 81 21
0 0 0 0 0 0 0 0 0 0 0 0 0 0 214 490 494 504 466 482 519 494 489 427 167 132 183 145 237 95 179 169 308 146 194 296 462 296 178 89 50 30 6 40 92 101 99 77 14

GFSSGP_con_mlcape_045.txt.gz
CAPE
0 0 0 0 0 0 0 0 0 0 1 0 0 0 0 0 0 0 0 0 0 0 0 0 0 0 0 0 0 0 0 0 0 0 0 0 0 0 0 0 0 0 0 0 0 0 0 0 0
0 0 0 0 0 0 0 0 0 0 1 0 0 0 0 0 0 0 0 16 0 0 0 0 0 0 0 0 0 0 0 0 0 0 0 0 0 0 0 0 0 0 0 0 0 0 0 0 0
0 0 0 0 0 0 0 0 1 0 9 0 0 0 0 0 0 0 0 77 6 0 0 0 0 0 0 0 0 0 0 0 0 0 0 0 0 0 0 0 0 0 0 0 0 0 0 0 0
0 0 0 0 0 0 0 0 1 45 0 0 0 0 0 0 0 0 9 50 52 0 0 0 0 0 0 0 0 0 0 0 0 0 0 0 0 0 0 0 0 0 1 29 66 92 60 31 3
0 0 0 0 0 0 0 0 3 14 11 0 0 0 0 0 0 0 0 58 9 120 0 0 0 0 0 0 0 0 0 0 0 0 0 0 0 0 14 60 94 133 166 151 259 269 244 106 95
0 0 0 0 0 0 0 0 13 26 5 0 0 0 0 0 0 0 0 0 0 23 79 0 0 0 0 0 0 0 0 0 0 0 5 13 21 27 102 182 236 376 540 339 252 227 225 267 151
0 0 0 0 0 0 0 0 0 0 0 0 0 0 0 0 0 0 0 0 0 13 0 143 0 0 0 9 25 0 22 15 11 20 36 28 57 112 194 174 217 410 409 419 243 242 277 255 128
0 0 0 0 0 0 0 0 0 0 0 3 0 0 0 0 0 0 0 0 2 68 74 97 107 1 0 8 81 58 37 74 81 75 90 90 131 170 198 112 139 269 320 292 203 121 78 90 135
0 0 0 0 0 0 0 0 0 0 0 0 0 0 0 0 0 0 0 0 12 42 127 170 182 202 37 10 105 196 188 187 244 245 254 199 243 169 103 223 370 474 379 252 141 66 26 0 47
0 0 0 0 0 0 0 0 0 0 0 0 0 0 0 0 0 0 0 0 0 0 123 189 206 206 172 133 90 312 300 376 419 394 390 468 284 84 160 298 634 836 602 444 222 192 123 38 0
0 0 0 0 0 0 0 0 0 0 0 0 0 0 0 0 0 0 0 0 0 0 0 333 305 279 276 302 257 377 305 278 378 323 359 299 224 254 522 535 534 765 670 460 286 242 180 3 0
0 0 0 0 0 0 0 0 0 0 0 0 0 0 0 0 0 0 0 0 0 0 0 0 321 441 457 444 336 475 378 378 291 227 283 263 428 535 695 414 428 409 355 214 149 165 107 37 2
0 0 0 0 0 0 0 0 0 0 0 0 0 0 0 0 0 0 0 0 0 0 0 0 13 351 525 415 357 603 580 509 421 441 420 534 519 585 459 362 384 372 271 261 283 264 149 70 69
0 0 0 0 0 0 0 0 0 0 0 0 0 0 0 0 0 1 0 0 0 0 0 0 0 123 382 349 387 577 689 699 614 651 716 789 784 564 459 648 690 445 387 303 231 169 88 23 5
0 0 0 0 0 0 0 0 0 0 0 0 0 0 0 0 0 0 0 0 0 0 0 0 0 95 331 393 466 607 735 827 887 753 865 824 583 444 516 530 520 564 459 377 266 164 68 1 0
0 0 0 0 0 0 0 0 0 0 0 0 0 0 0 0 0 0 0 0 0 0 0 0 88 390 663 512 1035 976 801 602 496 265 276 371 345 400 497 485 475 419 474 328 149 76 43 12 18
0 0 0 0 0 0 0 0 0 0 0 0 0 0 0 0 0 0 0 0 0 0 0 0 297 475 766 818 777 944 727 333 227 200 137 360 384 505 583 535 394 468 480 365 156 66 101 13 11
0 0 0 0 0 0 0 0 0 0 0 0 0 0 0 0 0 0 0 0 0 10 12 89 533 751 1125 1220 1068 831 622 320 203 168 219 368 401 529 631 498 536 598 432 174 139 72 54 0 9
0 0 0 0 0 0 0 0 0 0 0 0 0 0 0 0 0 0 0 0 15 66 209 387 639 1098 1242 1248 1181 1003 636 399 268 345 270 355 583 652 601 394 515 460 338 196 124 139 45 36 31
0 0 0 0 0 0 0 0 0 0 0 0 0 0 0 0 0 0 0 18 48 180 331 551 975 1214 1276 1215 969 775 659 356 237 222 301 417 386 408 430 392 468 444 235 285 217 162 99 73 62
0 0 0 0 0 0 0 0 0 0 0 0 0 0 0 0 0 0 0 14 93 200 309 436 818 1155 1173 1063 753 511 359 342 253 391 503 432 358 473 396 458 369 185 249 269 254 149 108 63 53
0 0 0 0 0 0 0 0 0 0 0 0 0 0 0 0 0 0 2 32 139 278 357 549 885 921 825 594 469 489 368 227 196 158 197 410 464 466 368 213 155 189 292 255 185 158 126 62 2
0 0 0 0 0 0 0 0 0 0 0 0 0 0 0 0 0 0 0 228 371 426 484 675 775 689 675 443 398 345 235 304 186 193 207 396 515 462 220 155 88 147 162 94 123 149 102 55 3
0 0 0 0 0 0 0 0 0 0 0 0 0 0 0 0 0 16 299 427 507 586 610 628 544 466 593 613 404 263 157 222 250 270 252 327 274 222 279 314 100 117 132 46 16 1 17 27 48
0 0 0 0 0 0 0 0 0 0 0 0 0 0 0 0 0 205 348 470 545 645 721 652 433 710 371 576 388 339 305 285 324 225 176 289 337 132 313 210 68 48 33 16 49 11 0 25 25
0 0 0 0 0 0 0 0 0 0 0 0 0 0 0 0 71 273 436 511 610 749 739 536 668 559 368 370 262 155 251 96 138 248 220 288 114 123 403 4 46 67 8 0 1 0 10 4 30
0 0 0 0 0 0 0 0 0 0 0 0 0 0 28 62 254 402 487 535 658 716 641 543 699 558 429 282 169 145 199 316 207 188 190 368 507 479 371 227 269 46 0 0 0 3 19 38 15
0 0 0 0 0 0 0 0 0 0 0 0 0 0 173 358 411 465 457 611 657 622 615 620 680 515 400 180 87 99 86 63 64 77 72 260 255 286 263 282 189 9 4 0 20 20 40 0 2
0 0 0 0 0 0 0 0 0 0 0 0 0 0 196 334 356 400 481 612 593 558 619 690 607 370 223 79 63 112 26 44 17 18 259 350 289 124 32 126 13 0 18 49 0 6 52 16 23
0 0 0 0 0 0 0 0 0 0 0 0 0 0 229 354 433 425 529 569 520 587 624 644 401 149 99 31 116 48 170 52 53 77 113 300 243 235 65 2 16 18 7 9 0 59 55 39 7

GFSSGP_con_mlcape_048.txt.gz
CAPE
0 0 0 0 0 0 0 0 0 0 0 0 0 0 0 0 0 0 0 0 0 0 0 0 0 0 0 0 0 0 0 0 0 0 0 0 0 0 0 0 0 0 0 0 0 0 0 0 0
0 0 0 0 0 0 0 0 0 0 1 0 0 0 0 0 0 0 0 8 0 0 0 0 0 0 0 0 0 0 0 0 0 0 0 0 0 0 0 0 0 0 0 0 0 0 0 0 0
0 0 0 0 0 0 0 0 0 15 0 0 0 0 0 0 0 0 0 0 0 0 0 0 0 0 0 0 0 0 0 0 0 0 0 0 0 0 0 0 0 0 0 0 0 0 0 0 0
0 0 0 0 0 0 0 0 0 0 1 1 0 0 0 0 0 0 6 0 0 0 0 0 0 0 0 0 0 0 0 0 0 0 0 0 0 0 0 0 0 0 0 19 32 47 68 47 23
0 0 0 0 0 0 0 0 0 0 0 0 0 0 0 0 0 15 12 0 0 0 0 0 0 0 0 0 0 0 0 0 0 0 0 0 0 10 44 72 78 76 90 94 103 180 272 223 146
0 0 0 0 0 0 0 0 0 0 0 0 0 0 0 0 8 33 50 0 0 0 0 0 0 0 0 0 0 0 0 0 0 0 7 7 29 57 98 122 112 187 297 368 418 303 300 293 264
0 0 0 0 0 0 0 0 0 0 2 0 0 0 0 0 0 20 35 11 0 0 0 0 0 0 0 0 0 0 0 0 3 31 32 44 71 91 119 180 178 269 454 430 455 381 275 284 329
0 0 0 0 0 0 0 0 0 0 0 0 0 0 0 0 0 0 2 0 9 0 0 0 0 0 0 0 0 0 0 5 45 90 102 108 151 152 168 183 187 257 426 379 385 269 317 242 196
0 0 0 0 0 0 0 0 0 0 0 0 0 0 0 0 0 0 0 0 2 37 40 58 6 0 0 2 50 45 10 11 69 126 175 209 230 200 270 254 159 288 405 414 327 237 223 166 109
0 0 0 0 0 0 0 0 0 0 0 0 0 0 0 0 0 0 0 0 1 14 92 135 125 53 12 2 24 125 87 97 137 158 173 296 189 146 203 167 310 540 625 577 424 352 235 304 124
0 0 0 0 0 0 0 0 0 0 0 0 0 0 0 0 0 0 0 0 0 0 15 117 144 173 101 35 21 155 153 130 198 180 172 245 203 171 179 134 288 578 933 716 677 427 342 210 45
0 0 0 0 0 0 0 0 0 0 0 0 0 0 0 0 0 0 0 0 0 0 0 91 211 207 188 137 87 95 161 168 259 236 207 144 159 107 98 288 484 593 705 650 484 343 180 167 109
0 0 0 0 0 0 0 0 0 0 0 0 0 0 0 0 0 0 0 0 0 0 0 0 87 176 203 168 164 141 227 141 210 321 264 140 114 71 256 416 428 319 479 407 252 165 194 183 71
0 0 0 0 0 0 0 0 0 0 0 0 0 0 0 0 0 0 0 0 0 0 0 0 2 87 246 262 218 236 332 247 161 167 197 178 133 182 427 453 311 340 309 235 197 201 227 150 76
0 0 0 0 0 0 0 0 0 0 0 0 0 0 0 0 0 0 0 0 0 0 0 0 0 39 190 327 270 420 456 370 248 274 377 426 286 406 468 390 410 423 338 260 171 129 77 40 2
0 0 0 0 0 0 0 0 0 0 0 0 0 0 0 0 0 0 0 0 0 0 0 0 0 1 106 249 287 541 570 546 473 476 626 672 560 550 570 392 324 319 309 272 230 229 82 31 9
0 0 0 0 0 0 0 0 0 0 0 0 0 0 0 0 0 0 0 0 0 0 0 0 13 9 82 223 402 538 530 527 531 572 764 730 764 671 356 317 310 314 321 306 253 173 65 12 19
0 0 0 0 0 0 0 0 0 0 0 0 0 0 0 0 0 0 0 0 0 0 0 0 77 158 288 561 641 528 497 496 408 513 471 488 381 234 278 377 380 305 276 265 189 128 75 66 22
0 0 0 0 0 0 0 0 0 0 0 0 0 0 0 0 0 0 0 0 0 0 0 4 127 343 617 788 752 530 339 87 72 83 82 121 166 298 327 364 380 337 418 319 149 102 97 84 39
0 0 0 0 0 0 0 0 0 0 0 0 0 0 0 0 0 0 0 0 0 7 29 109 316 672 945 864 662 485 420 237 186 133 125 234 299 373 395 451 332 337 342 199 174 142 101 70 50
0 0 0 0 0 0 0 0 0 0 0 0 0 0 0 0 0 0 0 0 0 26 143 407 625 863 1048 1031 851 619 437 301 249 212 199 217 368 378 320 262 220 228 176 157 147 148 110 40 29
0 0 0 0 0 0 0 0 0 0 0 0 0 0 0 0 0 0 0 0 20 178 450 715 922 1161 1081 963 871 761 538 407 248 199 223 262 306 325 269 204 206 129 61 99 119 106 66 3 3
0 0 0 0 0 0 0 0 0 0 0 0 0 0 0 0 0 0 0 0 144 351 500 746 966 1102 963 814 578 329 209 186 193 219 260 350 293 276 252 135 39 19 17 19 7 35 22 5 0
0 0 0 0 0 0 0 0 0 0 0 0 0 0 0 0 0 0 0 61 301 448 552 686 783 808 658 461 355 282 246 186 134 138 183 206 225 203 172 87 8 1 0 0 0 0 15 4 2
0 0 0 0 0 0 0 0 0 0 0 0 0 0 0 0 0 0 0 147 408 555 617 639 646 598 492 326 268 168 120 107 114 117 123 126 100 79 100 95 40 0 0 0 0 1 4 1 19
0 0 0 0 0 0 0 0 0 0 0 0 0 0 0 0 0 0 100 340 484 573 545 519 485 470 502 284 215 201 139 98 89 69 51 79 17 0 66 71 26 0 0 0 0 0 0 15 38
0 0 0 0 0 0 0 0 0 0 0 0 0 0 0 0 0 41 253 443 565 561 502 457 455 406 290 218 146 104 77 32 25 33 67 82 63 42 131 0 0 4 0 0 0 0 11 19 24
0 0 0 0 0 0 0 0 0 0 0 0 0 0 0 0 82 197 372 533 583 546 442 540 450 334 234 143 57 29 61 112 39 4 0 39 73 279 173 91 117 4 0 0 0 3 13 11 15
0 0 0 0 0 0 0 0 0 0 0 0 0 0 0 36 177 300 438 535 544 480 485 548 406 283 167 60 15 30 22 16 3 0 35 69 62 61 91 122 50 0 0 0 3 0 23 8 7
0 0 0 0 0 0 0 0 0 0 0 0 0 0 25 191 267 336 437 496 489 410 548 517 345 282 108 29 5 43 4 5 0 10 67 61 39 0 0 1 1 19 21 0 0 0 37 23 1